This demonstration page uses our WeatherBlox Daily Observations layout. Learn more.

Left ArrowRight Arrow

40.92945, -100.16068

Hourly Observations for August 19, 2020

Temp ( °F °C ) Dew Point ( °F °C ) Humidity (%) Winds ( mph kmh ) Pressure ( in mb ) Visibility ( mi km ) Precip ( " mm )
12:15 am 00:15 Clear 69 20.3 61 16.3 78 78 SE 8 13 29.99 1016 10 16.0934 0 0
12:35 am 00:35 Clear 68 20 62 16.5 80 80 SE 8 13 30 1016 10 16.0934 0 0
12:55 am 00:55 Clear 68 19.9 62 16.5 81 81 SE 7 11 30 1016 10 16.0934 0 0
1:15 am 01:15 Partly Cloudy 67 19.6 61 16.2 81 81 SE 6 9 30.01 1016 10 16.0934 0 0
1:35 am 01:35 Partly Cloudy 67 19.6 60 15.8 79 79 SE 9 15 30.01 1016 10 16.0934 0 0
1:55 am 01:55 Clear 67 19.6 60 15.6 78 78 SE 8 13 30.01 1016 10 16.0934 0 0
2:15 am 02:15 Clear 66 19.1 60 15.8 81 81 SE 8 13 30 1016 10 16.0934 0 0
2:35 am 02:35 Clear 66 18.8 61 16 84 84 SE 9 15 30 1016 10 16.0934 0 0
2:55 am 02:55 Clear 66 18.7 61 16 84 84 SSE 9 15 30 1016 10 16.0934 0 0
3:15 am 03:15 Clear 66 18.7 61 16.1 85 85 SE 9 15 30 1016 10 16.0934 0 0
3:35 am 03:35 Clear 66 18.8 61 16.2 85 85 SE 9 15 30 1016 10 16.0934 0 0
3:55 am 03:55 Clear 66 18.7 61 16.2 85 85 SE 8 13 30.01 1016 10 16.0934 0 0
4:15 am 04:15 Clear 65 18.6 61 16.3 87 87 SE 8 13 30.01 1016 10 16.0934 0 0
4:35 am 04:35 Clear 65 18.5 62 16.4 88 88 SSE 7 11 30.01 1016 10 16.0934 0 0
4:55 am 04:55 Clear 65 18.6 62 16.5 88 88 SSE 8 13 30.01 1016 10 16.0934 0 0
5:15 am 05:15 Clear 65 18.5 62 16.4 88 88 SSE 8 13 30 1016 10 16.0934 0 0
5:35 am 05:35 Clear 65 18.5 62 16.4 88 88 SSE 9 15 30 1016 10 16.0934 0 0
5:55 am 05:55 Clear 65 18.5 62 16.4 88 88 S 9 15 30 1016 10 16.0934 0 0
6:15 am 06:15 Clear 65 18.5 61 16.2 87 87 SSE 9 15 30 1016 10 16.0934 0 0
6:35 am 06:35 Clear 65 18.5 61 16.3 87 87 SSE 8 13 30.01 1016 10 16.0934 0 0
6:55 am 06:55 Sunny 65 18.5 61 16.1 86 86 SE 8 13 30.01 1016 10 16.0934 0 0
7:15 am 07:15 Sunny 65 18.2 61 16.2 88 88 SSE 8 13 30.02 1017 10 16.0934 0 0
7:35 am 07:35 Sunny 65 18.6 61 16.2 86 86 SSE 10 17 30.01 1016 10 16.0934 0 0
7:55 am 07:55 Sunny 65 18.6 61 16.1 85 85 SSE 13 20 29.99 1016 10 16.0934 0 0
8:15 am 08:15 Sunny 66 18.8 61 16 84 84 SSE 10 17 29.99 1016 10 16.0934 0 0
8:35 am 08:35 Sunny 66 19.1 60 15.8 81 81 SSE 9 15 30 1016 10 16.0934 0 0
8:55 am 08:55 Sunny 67 19.5 60 15.7 79 79 ESE 7 11 30.02 1016 10 16.0934 0 0
9:15 am 09:15 Sunny 67 19.6 61 15.9 79 79 SSE 12 19 30 1016 10 16.0934 0 0
9:35 am 09:35 Sunny 68 20 60 15.6 76 76 SSE 10 17 29.99 1016 10 16.0934 0 0
9:55 am 09:55 Sunny 69 20.4 60 15.5 74 74 SSE 10 17 29.99 1016 10 16.0934 0 0
10:15 am 10:15 Sunny 69 20.7 60 15.5 72 72 SSE 13 20 29.98 1015 10 16.0934 0 0
10:35 am 10:35 Sunny 71 21.8 60 15.8 69 69 SSE 14 22 29.97 1015 10 16.0934 0 0
10:55 am 10:55 Sunny 73 22.7 60 15.7 65 65 SSE 16 26 29.95 1014 10 16.0934 0 0
11:15 am 11:15 Sunny 75 23.8 60 15.7 61 61 SSE 17 28 29.94 1014 10 16.0934 0 0
11:35 am 11:35 Sunny 76 24.5 60 15.6 58 58 S 18 30 29.93 1014 10 16.0934 0 0
11:55 am 11:55 Sunny 78 25.8 60 15.8 54 54 SSE 15 24 29.91 1013 10 16.0934 0 0
12:15 pm 12:15 Sunny 79 26 60 15.5 52 52 S 15 24 29.91 1013 10 16.0934 0 0
12:35 pm 12:35 Sunny 80 26.9 60 15.6 50 50 SSE 18 30 29.9 1013 10 16.0934 0 0
12:55 pm 12:55 Sunny 80 26.9 60 15.3 49 49 S 16 26 29.9 1013 10 16.0934 0 0
1:15 pm 13:15 Sunny 81 27.4 60 15.5 48 48 S 14 22 29.89 1012 10 16.0934 0 0
1:35 pm 13:35 Sunny 81 27.4 60 15.8 49 49 SSE 16 26 29.89 1012 10 16.0934 0 0
1:55 pm 13:55 Sunny 82 27.9 61 16.1 49 49 SSE 14 22 29.89 1012 10 16.0934 0 0
2:15 pm 14:15 Sunny 83 28.3 60 15.6 46 46 SSE 14 22 29.87 1012 10 16.0934 0 0
2:35 pm 14:35 Sunny 83 28.6 61 15.9 46 46 S 12 19 29.86 1011 10 16.0934 0 0
2:55 pm 14:55 Sunny 84 28.8 61 15.9 46 46 S 10 17 29.86 1011 10 16.0934 0 0
3:15 pm 15:15 Sunny 84 28.7 61 16.1 46 46 SSE 13 20 29.86 1011 10 16.0934 0 0
3:35 pm 15:35 Sunny 84 29.1 61 16.1 45 45 S 13 20 29.85 1011 10 16.0934 0 0
3:55 pm 15:55 Sunny 84 28.7 61 16.1 46 46 S 10 17 29.84 1010 10 16.0934 0 0
4:15 pm 16:15 Sunny 84 29.1 62 16.8 47 47 S 8 13 29.84 1010 10 16.0934 0 0
4:35 pm 16:35 Sunny 84 29 62 16.6 47 47 S 9 15 29.83 1010 10 16.0934 0 0
4:55 pm 16:55 Sunny 86 30.1 62 16.4 44 44 S 13 20 29.81 1009 10 16.0934 0 0
5:15 pm 17:15 Sunny 85 29.5 62 16.9 47 47 SSE 13 20 29.8 1009 10 16.0934 0 0
5:35 pm 17:35 Sunny 86 29.8 62 16.6 45 45 SSE 14 22 29.8 1009 10 16.0934 0 0
5:55 pm 17:55 Sunny 85 29.3 62 16.7 47 47 SSE 10 17 29.8 1009 10 16.0934 0 0
6:15 pm 18:15 Sunny 85 29.2 64 18 51 51 SSE 10 17 29.8 1009 10 16.0934 0 0
6:35 pm 18:35 Sunny 84 28.8 64 17.7 51 51 SSE 15 24 29.8 1009 10 16.0934 0 0
6:55 pm 18:55 Sunny 83 28.3 64 18 54 54 SSE 12 19 29.8 1009 10 16.0934 0 0
7:15 pm 19:15 Sunny 82 28 64 17.9 54 54 SSE 10 17 29.81 1009 10 16.0934 0 0
7:35 pm 19:35 Sunny 81 27.1 64 18 58 58 SSE 12 19 29.81 1010 10 16.0934 0 0
7:55 pm 19:55 Sunny 80 26.5 64 17.9 59 59 SSE 13 20 29.82 1010 10 16.0934 0 0
8:15 pm 20:15 Sunny 78 25.7 64 17.7 61 61 SSE 10 17 29.82 1010 10 16.0934 0 0
8:35 pm 20:35 Clear 77 25.1 64 17.8 64 64 SSE 9 15 29.84 1010 10 16.0934 0 0
8:55 pm 20:55 Clear 76 24.2 64 17.6 67 67 SSE 8 13 29.85 1011 10 16.0934 0 0
9:15 pm 21:15 Clear 75 23.8 64 17.6 68 68 SE 9 15 29.86 1011 10 16.0934 0 0
9:35 pm 21:35 Clear 74 23.1 64 17.5 71 71 SE 8 13 29.88 1012 10 16.0934 0 0
9:55 pm 21:55 Clear 73 22.7 63 17.1 71 71 SE 9 15 29.87 1011 10 16.0934 0 0
10:15 pm 22:15 Clear 72 22.2 63 17.2 73 73 SE 7 11 29.88 1012 10 16.0934 0 0
10:35 pm 22:35 Clear 71 21.6 63 17.3 77 77 SE 7 11 29.89 1012 10 16.0934 0 0
10:55 pm 22:55 Clear 71 21.4 63 17 76 76 SE 7 11 29.89 1012 10 16.0934 0 0
11:15 pm 23:15 Clear 70 21.1 62 16.5 75 75 SSE 7 11 29.89 1012 10 16.0934 0 0
11:35 pm 23:35 Clear 68 20 62 16.4 80 80 SSE 8 13 29.9 1013 10 16.0934 0 0
11:55 pm 23:55 Clear 69 20.6 60 15.8 74 74 SSE 8 13 29.9 1012 10 16.0934 0 0

Powered by AerisWeather